| time (UTC) | temp C | wind direction | speed KPH | gust KPH | rain 1hr cm | rain 24hr cm | rain mn cm | humidity % | barometer mb |
| 20260504141155 | 17 | 191 | 0.0 | 4.8 | 0.00 | 0.00 | 0.00 | 50 | 1015.2 |
| 20260504081113 | 10 | 130 | 0.0 | 0.0 | 0.00 | 0.00 | 0.00 | 68 | 1016.2 |
| 20260504043938 | 10 | 130 | 0.0 | 0.0 | 0.00 | 0.00 | 0.00 | 60 | 1015.8 |
| 20260504040926 | 10 | 130 | 0.0 | 0.0 | 0.00 | 0.00 | 0.00 | 59 | 1015.5 |
| 20260504033917 | 10 | 130 | 0.0 | 0.0 | 0.00 | 0.00 | 0.00 | 59 | 1015.2 |
| 20260504030913 | 10 | 130 | 0.0 | 0.0 | 0.00 | 0.00 | 0.00 | 57 | 1015.1 |
| 20260504023913 | 10 | 130 | 0.0 | 0.0 | 0.00 | 0.00 | 0.00 | 55 | 1015.2 |
| 20260504020906 | 10 | 130 | 0.0 | 0.0 | 0.00 | 0.00 | 0.00 | 55 | 1015.2 |
| 20260504013902 | 11 | 130 | 0.0 | 0.0 | 0.00 | 0.00 | 0.00 | 50 | 1015.0 |
| 20260504010902 | 13 | 130 | 0.0 | 0.0 | 0.00 | 0.00 | 0.00 | 46 | 1014.7 |
| 20260504003900 | 14 | 130 | 0.0 | 0.0 | 0.00 | 0.00 | 0.00 | 41 | 1014.4 |
| 20260504000822 | 15 | 130 | 0.0 | 0.0 | 0.00 | 0.00 | 0.00 | 36 | 1014.0 |
| 20260503233820 | 16 | 130 | 0.0 | 4.8 | 0.00 | 0.00 | 0.00 | 34 | 1013.9 |
| 20260503230814 | 16 | 130 | 0.0 | 6.4 | 0.00 | 0.00 | 0.00 | 32 | 1013.6 |
| 20260503223810 | 16 | 143 | 0.0 | 1.6 | 0.00 | 0.00 | 0.00 | 31 | 1013.5 |
| 20260503220805 | 17 | 143 | 0.0 | 1.6 | 0.00 | 0.00 | 0.00 | 30 | 1013.4 |
| 20260503213801 | 17 | 143 | 0.0 | 6.4 | 0.00 | 0.00 | 0.00 | 30 | 1013.5 |
| 20260503210757 | 17 | 188 | 0.0 | 6.4 | 0.00 | 0.00 | 0.00 | 29 | 1013.4 |
| 20260503203751 | 17 | 184 | 0.0 | 17.7 | 0.00 | 0.00 | 0.00 | 30 | 1013.5 |
| 20260503200743 | 17 | 358 | 0.0 | 6.4 | 0.00 | 0.00 | 0.00 | 31 | 1013.7 |
| 20260503193740 | 17 | 358 | 0.0 | 6.4 | 0.00 | 0.00 | 0.00 | 30 | 1013.8 |
| 20260503190735 | 16 | 49 | 0.0 | 4.8 | 0.00 | 0.00 | 0.00 | 29 | 1014.1 |
| 20260503183736 | 16 | 54 | 0.0 | 16.1 | 0.00 | 0.00 | 0.00 | 32 | 1014.3 |
| 20260503180732 | 15 | 40 | 0.0 | 6.4 | 0.00 | 0.00 | 0.00 | 34 | 1014.5 |
| 20260503173730 | 15 | 358 | 1.6 | 8.0 | 0.00 | 0.00 | 0.00 | 35 | 1014.7 |
| 20260503170720 | 15 | 180 | 0.0 | 8.0 | 0.00 | 0.00 | 0.00 | 37 | 1014.8 |